Header for Extended Forecast Station List Page

Search by: ID | Name | Date | Parm | Value | Avg | % Avg
Sort by: ID | Name | Date | Parm | Value | Avg | % Avg

Enter search or view all records.

Click on id for station plot
#IDNameDateParmValueAvg% Avg
0LYDM8KOOTENAI-LIBBY DAM11-13-2018INFLOW (KAF)75380993
1LEOI1KOOTENAI-AT LEONIA11-13-2018DISCHARGE (KAF)25221357186
2BFEI1KOOTENAI-AT BONNERS FERRY11-13-2018STAGE (FT)MMM
3FCFM8NF FLATHEAD-NEAR COLUMBIA FALLS11-13-2018DISCHARGE (KAF)15817590
4WGCM8MF FLATHEAD-NEAR WEST GLACIER11-13-2018DISCHARGE (KAF)10615469
5HHWM8SF FLATHEAD-HUNGRY HORSE DAM11-13-2018INFLOW (KAF)22423894
6CFMM8FLATHEAD-AT COLUMBIA FALLS11-13-2018DISCHARGE (KAF)879115076
7DLGM8CLARK FORK-AT DEER LODGE11-13-2018DISCHARGE (KAF)7361118
8DRMM8CLARK FORK-NR DRUMMOND11-13-2018DISCHARGE (KAF)155MM
9RCCM8ROCK CREEK-NEAR CLINTON11-13-2018DISCHARGE (KAF)5546119
10BONM8BLACKFOOT-NEAR BONNER11-13-2018DISCHARGE (KAF)186131141
11ABOM8CLARK FORK-ABOVE MISSOULA11-13-2018DISCHARGE (KAF)411333123
12BITM8BITTERROOT-NEAR MISSOULA11-13-2018DISCHARGE (KAF)19022087
13BELM8CLARK FORK-BELOW MISSOULA11-13-2018DISCHARGE (KAF)602561107
14STRM8ST. REGIS-NEAR ST. REGIS11-13-2018DISCHARGE (KAF)174438
15SRGM8CLARK FORK-AT ST REGIS11-13-2018DISCHARGE (KAF)758744102
16KERM8FLATHEAD-KERR DAM11-13-2018INFLOW (KAF)1012149568
17NOXM8CLARK FORK-NOXON RAPIDS DAM11-13-2018INFLOW (KAF)2875362779
18CABI1CLARK FORK-CABINET GORGE DAM11-13-2018INFLOW (KAF)3165379783
19PRTI1PRIEST-NEAR PRIEST RIVER11-13-2018DISCHARGE (KAF)6621131
20ALFW1PEND OREILLE-ALBENI FALLS DAM11-13-2018INFLOW (KAF)3205444472
21HOPI1PEND OREILLE-PEND OREILLE LAKE NR HOPE11-13-2018LAKE ELEVATION (FT)MMM
22COEI1COEUR D ALENE-COEUR D ALENE LAKE11-13-2018INFLOW (KAF)33190736
23SPOW1SPOKANE-AT SPOKANE11-13-2018DISCHARGE (KAF)386MM
24LLKW1SPOKANE-AT LONGLAKE11-13-2018INFLOW (KAF)608141243
25SATI1ST MARIES-NEAR SANTA11-13-2018DISCHARGE (KAF)154832
26SJMI1ST JOE-AT ST MARIES11-13-2018STAGE (FT)MMM
27CIBW1COLUMBIA-AT INTL BOUNDARY11-13-2018DISCHARGE (KAF)18071MM
28LAUW1KETTLE-AT LAURIER11-13-2018DISCHARGE (KAF)10212184
29GCDW1COLUMBIA-GRAND COULEE DAM11-13-2018INFLOW (KAF)1887517162110
30CHJW1COLUMBIA-CHIEF JOSEPH DAM11-13-2018INFLOW (KAF)204742235492
31TONW1OKANOGAN-NEAR TONASKET11-13-2018DISCHARGE (KAF)25828491
32PATW1METHOW-NEAR PATEROS11-13-2018DISCHARGE (KAF)829686
33WELW1COLUMBIA-WELLS DAM11-13-2018INFLOW (KAF)208232278791
34CHDW1CHELAN-LAKE CHELAN DAM11-13-2018INFLOW (KAF)14916192
35RRHW1COLUMBIA-ROCKY REACH DAM11-13-2018INFLOW (KAF)214242332292
36ARDW1ENTIAT-NEAR ARDENVOIR11-13-2018DISCHARGE (KAF)192285
37PESW1WENATCHEE-AT PESHASTIN11-13-2018DISCHARGE (KAF)19930765
38WANW1COLUMBIA-WANAPUM DAM11-13-2018INFLOW (KAF)2165020411106
39PRWW1COLUMBIA-PRIEST RAPIDS DAM11-13-2018INFLOW (KAF)2165020709105
40KEDW1YAKIMA-KEECHELUS LAKE11-13-2018INFLOW (KAF)305159
41KADW1KACHESS-KACHESS DAM11-13-2018INFLOW (KAF)294860
42EASW1YAKIMA-AT EASTON11-13-2018DISCHARGE (KAF)647684
43CLUW1CLE ELUM-CLE ELUM LAKE11-13-2018INFLOW (KAF)6010657
44TNAW1TEANAWAY-BELOW FORKS11-13-2018DISCHARGE (KAF)245047
45UMTW1YAKIMA-AT UMTANUM11-13-2018DISCHARGE (KAF)22828580
46BUDW1BUMPING-BUMPING LAKE DAM11-13-2018INFLOW (KAF)123832
47CLFW1NACHES-NEAR CLIFFDEL11-13-2018DISCHARGE (KAF)5211644
48RILW1TIETON-RIMROCK LAKE NEAR RIMROCK11-13-2018INFLOW (KAF)327145
49NACW1NACHES-NEAR NACHES11-13-2018DISCHARGE (KAF)449646
50PARW1YAKIMA-NEAR PARKER11-13-2018DISCHARGE (KAF)36953968
51KIOW1YAKIMA-AT KIONA11-13-2018DISCHARGE (KAF)53278268
52IPDI1HENRYS FORK-ISLAND PARK DAM11-13-2018INFLOW (KAF)7811269
53CHEI1FALL RIVER-NEAR CHESTER11-13-2018DISCHARGE (KAF)10911198
54ANTI1HENRYS FORK-AT ST. ANTHONY11-13-2018DISCHARGE (KAF)349341102
55TEAI1TETON-NEAR ST. ANTHONY11-13-2018DISCHARGE (KAF)11497118
56REXI1HENRYS FORK-AT REXBURG11-13-2018DISCHARGE (KAF)456427107
57JLKW4SNAKE-JACKSON LAKE AT DAM11-13-2018INFLOW (KAF)9911586
58JKSW4SNAKE-NEAR JACKSON11-13-2018DISCHARGE (KAF)321299107
59ALPW4SNAKE-NEAR ALPINE11-13-2018DISCHARGE (KAF)374371101
60PLDI1SF SNAKE-PALISADES DAM11-13-2018INFLOW (KAF)58659898
61HEII1SNAKE-NEAR HEISE11-13-2018DISCHARGE (KAF)33455960
62RIDI1WILLOW CREEK-RIRIE DAM11-13-2018INFLOW (KAF)9996
63SIFI1SNAKE-AB EAGLE ROCK NR IDAHO FALLS11-13-2018DISCHARGE (KAF)64380780
64SHYI1SNAKE-NEAR SHELLEY11-13-2018DISCHARGE (KAF)62681677
65SNAI1SNAKE-AT BLACKFOOT11-13-2018DISCHARGE (KAF)55375274
66BFTI1SNAKE-NEAR BLACKFOOT11-13-2018DISCHARGE (KAF)56179571
67PIHI1PORTNEUF-AT POCATELLO11-13-2018DISCHARGE (KAF)556881
68AFRI1SNAKE-AMERICAN FALLS RESERVOIR11-13-2018INFLOW (KAF)1207149281
69MILI1SNAKE-AT MILNER11-13-2018DISCHARGE (KAF)446527
70HOTI1BRUNEAU-NEAR HOT SPRINGS11-13-2018DISCHARGE (KAF)173254
71SWAI1SNAKE-BELOW SWAN FALLS11-13-2018DISCHARGE (KAF)1780262068
72HWRI1BIG LOST-AT HOWELL RANCH NEAR CHILLY11-13-2018DISCHARGE (KAF)2119108
73MACI1BIG LOST-MACKAY RESERVOIR NEAR MACKAY11-13-2018INFLOW (KAF)374872
74HALI1BIG WOOD-AT HAILEY11-13-2018DISCHARGE (KAF)343793
75MAGI1BIG WOOD-MAGIC DAM11-13-2018INFLOW (KAF)223074
76LWRI1LITTLE WOOD-LITTLE WOOD DAM11-13-2018INFLOW (KAF)111571
77OWYO3OWYHEE-OWYHEE DAM11-13-2018INFLOW (KAF)6310957
78ARAI1SF BOISE-ANDERSON RANCH DAM11-13-2018INFLOW (KAF)637980
79LUCI1BOISE-LUCKY PEAK DAM11-13-2018INFLOW (KAF)99MM
80BIGI1BOISE-AT GLENWOOD BRIDGE11-13-2018DISCHARGE (KAF)10139257
81PARI1BOISE-NEAR PARMA11-13-2018DISCHARGE (KAF)230214107
82WRMO3MALHEUR-WARM SPRINGS DAM11-13-2018INFLOW (KAF)123534
83BERO3MALHEUR-AGENCY VALLEY DAM11-13-2018INFLOW (KAF)112250
84BULO3BULLY CREEK-BULLY CREEK DAM11-13-2018INFLOW (KAF)3465
85VALO3MALHEUR-NEAR VALE11-13-2018DISCHARGE (KAF)213561
86CSDI1NF PAYETTE-CASCADE DAM11-13-2018INFLOW (KAF)639864
87DEDI1DEADWOOD-NEAR LOWMAN11-13-2018INFLOW (KAF)151978
88EMMI1PAYETTE-NEAR EMMETT11-13-2018DISCHARGE (KAF)27838472
89WSRI1WEISER-NEAR WEISER11-13-2018DISCHARGE (KAF)7612760
90WEII1SNAKE-AT WEISER11-13-2018DISCHARGE (KAF)2629382269
91BRNI1SNAKE-BROWNLEE DAM11-13-2018INFLOW (KAF)2816396571
92WHBI1SALMON-AT WHITEBIRD11-13-2018DISCHARGE (KAF)975105892
93TRYO3GRANDE RONDE-TROY11-13-2018DISCHARGE (KAF)20938654
94ANAW1SNAKE-NEAR ANATONE11-13-2018DISCHARGE (KAF)4174607269
95ORFI1CLEARWATER-AT OROFINO11-13-2018DISCHARGE (KAF)45980257
96DWRI1NF CLEARWATER-DWORSHAK DAM11-13-2018INFLOW (KAF)28661846
97SPDI1CLEARWATER-AT SPALDING11-13-2018DISCHARGE (KAF)1105188059
98LGDW1SNAKE-LOWER GRANITE DAM11-13-2018INFLOW (KAF)5280816365
99LGSW1SNAKE-LITTLE GOOSE DAM11-13-2018INFLOW (KAF)5280823164
100LMNW1SNAKE-LOWER MONUMENTAL DAM11-13-2018INFLOW (KAF)5460837965
101IHDW1SNAKE-ICE HARBOR DAM11-13-2018INFLOW (KAF)5460829366
102TCHW1WALLA WALLA-NEAR TOUCHET11-13-2018DISCHARGE (KAF)10316164
103MCDW1COLUMBIA-MCNARY DAM11-13-2018INFLOW (KAF)277383124289
104GIBO3UMATILLA-NEAR GIBBON11-13-2018DISCHARGE (KAF)354381
105PDTO3UMATILLA-AT PENDLETON11-13-2018DISCHARGE (KAF)8610980
106MYKO3MCKAY CREEK-NEAR PILOT ROCK11-13-2018DISCHARGE (KAF)2525101
107UMAO3UMATILLA-NEAR UMATILLA11-13-2018DISCHARGE (KAF)118111106
108MONO3NF JOHN DAY-AT MONUMENT11-13-2018DISCHARGE (KAF)8216649
109SERO3JOHN DAY-AT SERVICE CK11-13-2018DISCHARGE (KAF)15428754
110JDAO3COLUMBIA-JOHN DAY DAM11-13-2018INFLOW (KAF)290613256289
111MODO3DESCHUTES-AT MOODY NR BIGGS11-13-2018DISCHARGE (KAF)1351148391
112TDAO3COLUMBIA-THE DALLES DAM11-13-2018INFLOW (KAF)296713685881
113PITW1KLICKITAT-NEAR PITT11-13-2018DISCHARGE (KAF)28433884
114HODO3HOOD-NEAR TUCKER BRIDGE11-13-2018DISCHARGE (KAF)22226384
115UNDW1WHITE SALMON-NEAR UNDERWOOD11-13-2018DISCHARGE (KAF)22027680
116BONO3COLUMBIA-BONNEVILLE DAM11-13-2018INFLOW (KAF)304023926577